Regional Weather Roundup
Issued by NWS

Home | Current Version | Previous Version | Graphics & Text | Print | Product List | Glossary On
Versions: 1 2 3 4 5 6 7 8 9 10 11 12 13 14 15 16 17 18 19 20 21 22 23 24 25 26 27 28 29 30 31 32 33 34 35 36 37 38 39 40 41 42 43 44 45 46 47 48 49 50
583
ASUS44 KLIX 270705
RWRLA
LOUISIANA WEATHER ROUNDUP
NATIONAL WEATHER SERVICE NEW ORLEANS LA
100 AM CST FRI FEB 27 2015

NOTE: "FAIR" INDICATES FEW OR NO CLOUDS BELOW 12,000 FEET WITH NO
      SIGNIFICANT WEATHER AND/OR OBSTRUCTIONS TO VISIBILITY.
      SKY/WX - SKY CONDITION AND SIGNIFICANT WEATHER.
      TMP - AIR TEMPERATURE.    DP   - DEWPOINT TEMPERATURE.
      RH  - RELATIVE HUMIDITY.  PRES - PRESSURE.
      HX  - HEAT INDEX.         WCI  - WIND CHILL INDEX.

*  THESE STATIONS ARE NOT NWS OR FAA STATIONS AND ARE NOT UNDER
   NWS QUALITY CONTROL.

LAZ040-048-061>063-065-066-069-270800-
SOUTHEAST LOUISIANA

CITY           SKY/WX    TMP DP  RH WIND       PRES   REMARKS
N.O. AUDUBON     N/A     39  35  86 MISG        N/A
N.O. INTL ARPT MOCLDY    39  32  76 N18       30.30R WCI  30
N.O. LAKEFRONT PTCLDY    41  33  73 N22       30.31R
SLIDELL        MOCLDY    35  31  85 N9        30.30R WCI  28
BATON ROUGE    CLOUDY    36  30  79 N9        30.33R WCI  29
BOOTHVILLE     CLOUDY    47  37  68 N14G23    30.24R
BELLE CHASSE   PTCLDY    41  32  70 N12G18    30.28R
BOGALUSA*        N/A     36  30  79 N8G17     30.32S WCI  30
GALLIANO*      PTSUNNY   45  36  70 N9G16     30.27R
NEW ROADS*     CLOUDY    36  30  80 N9        30.34R WCI  29
GONZALES*      CLOUDY    37  32  84 N6        30.31S WCI  32
HAMMOND*       CLOUDY    36  30  80 N12       30.34R WCI  27
HOUMA*         PTCLDY    39  34  82 N12       30.28R WCI  32
PORT FOURCHON* SUNNY     46  37  71 N13G21    30.28R

$$

LAZ041-044-053-054-270800-
SOUTHWEST LOUISIANA

CITY           SKY/WX    TMP DP  RH WIND       PRES   REMARKS
LAKE CHARLES   CLOUDY    41  33  73 NE18G28   30.31S
LAFAYETTE      MOCLDY    36  31  82 N14       30.32R WCI  27
PATTERSON      PTCLDY    37  32  81 N12       30.31R WCI  30
SALT POINT       N/A     38  33  82 N8        30.28R WCI  32
NEW IBERIA     CLEAR     36  30  79 N14       30.31S WCI  27
CHENAULT AIRPK CLOUDY    40  32  75 N15       30.32F WCI  31

$$

LAZ027-028-270800-
CENTRAL LOUISIANA

CITY           SKY/WX    TMP DP  RH WIND       PRES   REMARKS
FORT POLK      CLOUDY    36  32  84 NE13G21   30.33S WCI  28
ALEXANDRIA INT MOCLDY    36  29  75 N7        30.36S WCI  30
ALEXANDRIA     CLOUDY    37  28  70 N6        30.37S WCI  32

$$

LAZ001-002-270800-
NORTHWEST LOUISIANA

CITY           SKY/WX    TMP DP  RH WIND       PRES   REMARKS
SHREVEPORT     CLOUDY    35  29  78 NE14      30.37F WCI  26
BARKSDALE AFB  CLOUDY    33  30  90 NE5       30.39F WCI  28
DTN SHREVEPORT CLOUDY    33  28  81 NE9       30.39F WCI  25

$$

LAZ014-016-270800-
NORTHEAST LOUISIANA

CITY           SKY/WX    TMP DP  RH WIND       PRES   REMARKS
MONROE         CLEAR     30  27  88 N7        30.42R WCI  23
TALLULAH       CLOUDY    32  26  78 N18       30.40R WCI  20

$$




USA.gov is the U.S. government's official web portal to all federal, state and local government web resources and services.